Location: Berg
(47.2344°N, 9.5296°E)
Time: 22:43:01
(UTC+00:00)

Iridium 4 Rocket - Pass Details

Date: 24 January 2021
Orbit: 583 x 906 km, 86.9° (Epoch: 03 March)

Event Time Altitude Azimuth Distance (km) Brightness Sun altitude
Rises 17:25:31 0° 2° (N) 3,462 6.7 -12.4°
Reaches altitude 10° 17:28:11 10° 9° (N) 2,482 5.9 -12.9°
Maximum altitude 17:33:27 41° 79° (E) 1,147 3.9 -13.7°
Drops below altitude 10° 17:38:16 10° 150° (SSE) 2,272 5.8 -14.5°
Sets 17:40:36 0° 158° (SSE) 3,139 6.6 -14.9°
